Regional Weather Roundup
Issued by NWS

Home | Current Version | Previous Version | Graphics & Text | Print | Product List | Glossary On
Versions: 1 2 3 4 5 6 7 8 9 10 11 12 13 14 15 16 17 18 19 20 21 22 23 24 25 26 27
000
ASUS45 KTFX 280610
RWRMT
MONTANA REGIONAL WEATHER ROUNDUP
NATIONAL WEATHER SERVICE GREAT FALLS MT
1200 AM MDT SUN MAY 28 2017

NOTE: "FAIR" INDICATES FEW OR NO CLOUDS BELOW 12000 FEET WITH NO
SIGNIFICANT WEATHER AND/OR OBSTRUCTIONS TO VISIBILITY.

MTZ001>007-043-280700-
WEST OF THE DIVIDE

CITY           SKY/WX    TMP DP  RH WIND       PRES   REMARKS
KALISPELL      CLEAR     51  45  79 NE7       30.13R
MISSOULA       CLEAR     56  43  61 CALM      30.19R
BUTTE          CLEAR     46  34  62 S3        30.27S
MULLAN PASS    CLEAR     52  36  54 NW5       30.29S
ANACONDA         N/A     52  34  50 S8        30.25S
DEER LODGE       N/A     50  36  57 CALM      30.26S
EUREKA           N/A     59  43  55 CALM      30.11R
HAMILTON         N/A     54  39  58 S3        30.21R
RONAN            N/A     55  43  64 CALM      30.18S
$$

MTZ008-052>055-280700-
SOUTHWEST MONTANA

CITY           SKY/WX    TMP DP  RH WIND       PRES   REMARKS
BOZEMAN        CLEAR     44  39  82 SE3       30.21S
DILLON         CLEAR     54  33  45 SW3       30.24R
ENNIS          CLEAR     45  34  65 CALM      30.30S
THREE FORKS      N/A     49  41  74 CALM      30.18R
$$

MTZ009-010-012-014-046-048-049-054-280700-
EAST SLOPES AND CENTRAL MONTANA

CITY           SKY/WX    TMP DP  RH WIND       PRES   REMARKS
CUT BANK       PTCLDY    60  40  47 N23G31    30.15R
GREAT FALLS    CLOUDY    51  42  71 S6        30.15R
MALMSTROM AFB  CLEAR     52  43  70 SW7       30.14R
HELENA         CLEAR     59  38  45 NW3       30.17R
CHOTEAU          N/A     54  37  54 SW8       30.17R
CONRAD           N/A     52  49  89 SW5       30.13F
$$

MTZ011-013-016-021-045-047-050-051-280700-
NORTH CENTRAL MONTANA

CITY           SKY/WX    TMP DP  RH WIND       PRES   REMARKS
HAVRE          CLEAR     52  45  77 N3        30.07R
LEWISTOWN      LGT RAIN  56  44  64 NW8       30.20R
N BAR RANCH    LGT RAIN  50  46  87 NW10      30.24R
CHINOOK          N/A     54  46  76 W5        30.05S
FORT BENTON      N/A     61  45  55 CALM      30.11S
$$

MTZ017>020-022>027-061-062-280700-
NORTHEAST MONTANA

CITY           SKY/WX    TMP DP  RH WIND       PRES   REMARKS
GLASGOW        CLOUDY    62  39  42 NW9       30.02R
JORDAN           N/A     64  41  42 W14       30.03F
SIDNEY         PTCLDY    53  39  59 NW9       29.95R
WOLF POINT     CLOUDY    60  38  43 N8        29.98R
MALTA          PTCLDY    54  48  82 CALM      30.03S
PLENTYWOOD       N/A     50  32  50 N9        29.95S
POPLAR           N/A     55  37  50 NW7       29.98R
$$

MTZ028>42-056>058-280700-
SOUTHCENTRAL AND SOUTHEAST MONTANA

CITY           SKY/WX    TMP DP  RH WIND       PRES   REMARKS
BAKER          CLOUDY    56  39  53 W8        30.00R
BILLINGS       CLOUDY    60  37  42 W10       30.12S
LIVINGSTON     CLEAR     47  37  68 W10       30.20S
MILES CITY     CLOUDY    61  34  36 W7        30.01R
BIG TIMBER     CLEAR     54  36  50 SW13      30.21S
FORSYTH          N/A     57  39  51 CALM      30.05R
LAUREL           N/A     58  35  42 CALM      30.11F
ROUNDUP          N/A     62  38  41 N18       30.05R
$$

REGIONAL REPORTS...DAKOTAS

CITY           SKY/WX    TMP DP  RH WIND       PRES   REMARKS
WILLISTON      CLEAR     53  36  52 VRB5      29.93R
MINOT          CLEAR     49  43  80 SW9       29.84S
DICKINSON      PTCLDY    48  39  71 NW9       29.92R
BEACH            N/A     50  41  71 CALM      29.99S
CROSBY           N/A     48  43  81 W12       29.91R
TIOGA            N/A     48  41  76 W6        29.92R
WATFORD CITY     N/A     48  37  66 SW5       29.92R
BISMARCK       PTCLDY    49  43  80 CALM      29.86F
GRAND FORKS    MOCLDY    53  49  86 NW10      29.73F
FARGO          CLEAR     52  45  77 W9        29.77R
BUFFALO SD       N/A     51  44  77 W10       29.93F
RAPID CITY     CLEAR     50  40  68 W9        30.04F
$$

REGIONAL REPORTS...WYOMING/IDAHO/WASHINGTON

CITY           SKY/WX    TMP DP  RH WIND       PRES   REMARKS
GILLETTE       CLEAR     48  40  73 W13       30.13S
SHERIDAN       MOCLDY    57  40  52 W14       30.14F
BUFFALO WY     MOCLDY    56  35  45 NW8       30.19S
CODY           CLOUDY    52  36  54 SW9       30.24S
YELLOWSTONE LA   N/A     30  30 100 CALM      30.39S
IDAHO FALLS    CLEAR     50  44  80 CALM      30.27R
SALMON         CLEAR     50  39  66 CALM      30.20R
BOISE          CLEAR     60  39  45 SE7       30.15S
SPOKANE        CLEAR     64  44  48 SW5       30.13S
$$

REGIONAL REPORTS...ALBERTA

CITY           SKY/WX    TMP DP  RH WIND       PRES   REMARKS
EDMONTON       CLEAR     55  36  47 N9        30.13R
CALGARY        MOCLDY    63  41  45 N12       30.17R
LETHBRIDGE     MOCLDY    57  46  67 S7        30.10F
MEDICINE HAT   CLEAR     52  45  76 SW7       30.05R
WATERTON GATE    N/A     48  41  76 SW3         N/A
CARDSTON         N/A     57  43  58 S3          N/A
MILK RIVER       N/A     57  48  72 N14G26      N/A
ONEFOUR          N/A     50  43  76 W5          N/A
$$

REGIONAL REPORTS...SASKATCHEWAN

CITY           SKY/WX    TMP DP  RH WIND       PRES   REMARKS
SWIFT CURRENT  CLEAR     52  36  54 W7        30.00S
REGINA         MOCLDY    46  34  61 NW7       29.93R
SASKATOON      MOCLDY    55  39  54 N5        29.95S
VAL MARIE        N/A     54  41  62 NW10        N/A
ROCKGLEN         N/A     50  32  50 CALM        N/A
$$




USA.gov is the U.S. government's official web portal to all federal, state and local government web resources and services.